This is the latest recevied weather packets stored in our database for station/object EW1958. If no packets are shown the sender has not sent any weather packets the latest 10 day(s).
| Time | Temp. | Humidity | Pressure | Rain* | Wind** | Luminosity | Snow |
|---|---|---|---|---|---|---|---|
| 1788558946 | 19.44° C | 69% | 1016 hPa | 0 mm | - | - | - |
| 1788558643 | 19.44° C | 65% | 1015.9 hPa | 0 mm | - | - | - |
| 1788558340 | 19.44° C | 67% | 1015.9 hPa | 0 mm | - | - | - |
| 1788558041 | 19.44° C | 67% | 1015.9 hPa | 0 mm | - | - | - |
| 1788557739 | 20° C | 67% | 1015.9 hPa | 0 mm | - | - | - |
| 1788557439 | 20° C | 66% | 1015.9 hPa | 0 mm | - | - | - |
| 1788557139 | 20° C | 63% | 1015.8 hPa | 0 mm | - | - | - |
| 1788556838 | 20° C | 65% | 1015.9 hPa | 0 mm | - | - | - |
| 1788556534 | 20° C | 61% | 1015.8 hPa | 0 mm | - | - | - |
| 1788556234 | 19.44° C | 63% | 1015.8 hPa | 0 mm | - | - | - |
| 1788555934 | 19.44° C | 66% | 1015.8 hPa | 0 mm | - | - | - |
| 1788555633 | 19.44° C | 65% | 1015.8 hPa | 0 mm | - | - | - |
| 1788555472 | 19.44° C | 63% | 1015.8 hPa | 0 mm | - | - | - |
| 1788555165 | 19.44° C | 62% | 1015.8 hPa | 0 mm | - | - | - |
| 1788554863 | 19.44° C | 62% | 1015.8 hPa | 0 mm | - | - | - |
| 1788554433 | 20° C | 62% | 1015.7 hPa | 0 mm | - | - | - |
| 1788554133 | 20° C | 64% | 1015.8 hPa | 0 mm | - | - | - |
| 1788553832 | 20.56° C | 60% | 1015.6 hPa | 0 mm | - | - | - |
| 1788553532 | 21.11° C | 62% | 1015.7 hPa | 0 mm | - | - | - |
| 1788553383 | 21.11° C | 60% | 1015.7 hPa | 0 mm | - | - | - |
| 1788553085 | 21.11° C | 58% | 1015.7 hPa | 0 mm | - | - | - |
| 1788552631 | 20.56° C | 63% | 1015.7 hPa | 0 mm | - | - | - |
| 1788552331 | 20° C | 64% | 1015.7 hPa | 0 mm | - | - | - |
| 1788552031 | 20° C | 66% | 1015.8 hPa | 0 mm | - | - | - |
| 1788551730 | 19.44° C | 66% | 1015.8 hPa | 0 mm | - | - | - |
* Rain latest hour (hover to see other rain measurements)
** Current wind speed in m/s (hover to see current wind gust speed)